This is the latest recevied weather packets stored in our database for station/object KD0RII. If no packets are shown the sender has not sent any weather packets the latest 10 day(s).
| Time | Temp. | Humidity | Pressure | Rain* | Wind** | Luminosity | Snow |
|---|---|---|---|---|---|---|---|
| 1778177437 | 19.44° C | 51% | 1016.4 hPa | 0 mm | - | 835 W/m² | - |
| 1778177134 | 19.44° C | 50% | 1016.4 hPa | 0 mm | - | 840 W/m² | - |
| 1778176831 | 20° C | 49% | 1016.4 hPa | 0 mm | - | 862 W/m² | - |
| 1778176527 | 19.44° C | 58% | 1016.5 hPa | 0 mm | - | 911 W/m² | - |
| 1778176225 | 18.33° C | 53% | 1016.5 hPa | 0 mm | - | 860 W/m² | - |
| 1778175921 | 18.89° C | 53% | 1016.9 hPa | 0 mm | - | 290 W/m² | - |
| 1778175619 | 18.89° C | 54% | 1017 hPa | 0 mm | - | 945 W/m² | - |
| 1778175316 | 18.33° C | 53% | 1017 hPa | 0 mm | - | 864 W/m² | - |
| 1778175014 | 17.78° C | 55% | 1017.2 hPa | 0 mm | - | 872 W/m² | - |
| 1778174709 | 18.89° C | 52% | 1017 hPa | 0 mm | - | 183 W/m² | - |
| 1778174406 | 19.44° C | 51% | 1017.2 hPa | 0 mm | - | 851 W/m² | - |
| 1778174101 | 19.44° C | 55% | 1017.1 hPa | 0 mm | - | 684 W/m² | - |
| 1778173799 | 18.33° C | 54% | 1017.4 hPa | 0 mm | - | 946 W/m² | - |
| 1778173495 | 18.33° C | 53% | 1017.4 hPa | 0 mm | - | 299 W/m² | - |
| 1778173192 | 18.89° C | 52% | 1017.5 hPa | 0 mm | - | 314 W/m² | - |
| 1778172888 | 18.89° C | 52% | 1017.6 hPa | 0 mm | - | 804 W/m² | - |
| 1778172584 | 18.89° C | 54% | 1017.6 hPa | 0 mm | - | 814 W/m² | - |
| 1778172281 | 18.33° C | 53% | 1017.5 hPa | 0 mm | - | 471 W/m² | - |
| 1778171978 | 18.33° C | 53% | 1017.6 hPa | 0 mm | - | 850 W/m² | - |
| 1778171675 | 17.78° C | 57% | 1017.8 hPa | 0 mm | - | 896 W/m² | - |
| 1778171372 | 17.78° C | 54% | 1017.8 hPa | 0 mm | - | 904 W/m² | - |
| 1778171067 | 17.78° C | 54% | 1018 hPa | 0 mm | - | 275 W/m² | - |
| 1778170765 | 17.78° C | 55% | 1017.9 hPa | 0 mm | - | 828 W/m² | - |
| 1778170461 | 17.78° C | 54% | 1018 hPa | 0 mm | - | 766 W/m² | - |
| 1778170158 | 17.78° C | 54% | 1018.1 hPa | 0 mm | - | 752 W/m² | - |
* Rain latest hour (hover to see other rain measurements)
** Current wind speed in m/s (hover to see current wind gust speed)